Time,TemperatureF,DewpointF,PressureIn,WindDirection,WindDirectionDegrees,WindSpeedMPH,WindSpeedGustMPH,Humidity,HourlyPrecipIn,Conditions,Clouds,dailyrainin,SoftwareType,DateUTC
2013-08-01 00:01:00,73.2,72.3,30.03,ESE,114,0.0,0.0,97,0.00,,,0.00,VWS V14.01,2013-08-01 04:01:00,
2013-08-01 00:04:00,73.2,72.3,30.03,ESE,114,0.0,0.0,97,0.00,,,0.00,VWS V14.01,2013-08-01 04:04:00,
2013-08-01 00:08:00,73.2,72.3,30.03,ESE,114,0.0,0.0,97,0.00,,,0.00,VWS V14.01,2013-08-01 04:08:00,
2013-08-01 00:10:00,73.2,72.3,30.03,ESE,114,0.0,0.0,97,0.00,,,0.00,VWS V14.01,2013-08-01 04:10:00,
2013-08-01 00:16:00,73.1,72.2,30.03,ESE,114,0.0,0.0,97,0.00,,,0.00,VWS V14.01,2013-08-01 04:16:00,
2013-08-01 00:22:00,73.1,72.2,30.03,ESE,114,0.0,0.0,97,0.00,,,0.00,VWS V14.01,2013-08-01 04:22:00,
2013-08-01 00:25:00,73.1,72.2,30.03,ESE,114,0.0,0.0,97,0.00,,,0.00,VWS V14.01,2013-08-01 04:25:00,
2013-08-01 00:31:00,73.0,72.1,30.02,ESE,115,0.0,0.0,97,0.00,,,0.00,VWS V14.01,2013-08-01 04:31:00,
2013-08-01 00:37:00,73.0,72.1,30.02,SSE,150,0.0,1.0,97,0.00,,,0.00,VWS V14.01,2013-08-01 04:37:00,
2013-08-01 00:43:00,73.0,72.1,30.02,SSE,151,0.0,1.0,97,0.00,,,0.00,VWS V14.01,2013-08-01 04:43:00,
2013-08-01 00:48:00,73.0,72.1,30.02,SSE,150,0.0,0.0,97,0.00,,,0.00,VWS V14.01,2013-08-01 04:48:00,
2013-08-01 00:53:00,73.0,72.1,30.02,SSE,150,0.0,0.0,97,0.00,,,0.00,VWS V14.01,2013-08-01 04:53:00,
2013-08-01 00:58:00,73.0,72.1,30.02,SSE,150,0.0,0.0,97,0.00,,,0.00,VWS V14.01,2013-08-01 04:58:00,
2013-08-01 01:03:00,73.0,72.1,30.02,SSE,150,0.0,0.0,97,0.00,,,0.00,VWS V14.01,2013-08-01 05:03:00,
2013-08-01 01:08:00,73.1,72.2,30.02,SSE,151,0.0,0.0,97,0.00,,,0.00,VWS V14.01,2013-08-01 05:08:00,
2013-08-01 01:13:00,73.2,72.3,30.02,SSE,150,0.0,0.0,97,0.00,,,0.00,VWS V14.01,2013-08-01 05:13:00,
2013-08-01 01:18:00,73.3,72.4,30.01,SSE,151,0.0,0.0,97,0.00,,,0.00,VWS V14.01,2013-08-01 05:18:00,
2013-08-01 01:23:00,73.4,72.5,30.01,SSE,151,0.0,0.0,97,0.00,,,0.00,VWS V14.01,2013-08-01 05:23:00,
2013-08-01 01:28:00,73.5,72.6,30.01,SSE,151,0.0,0.0,97,0.00,,,0.00,VWS V14.01,2013-08-01 05:28:00,
2013-08-01 01:33:00,73.6,72.7,30.01,SSE,151,0.0,0.0,97,0.00,,,0.00,VWS V14.01,2013-08-01 05:33:00,
2013-08-01 01:38:00,73.7,72.8,30.01,SSE,150,0.0,0.0,97,0.00,,,0.00,VWS V14.01,2013-08-01 05:38:00,
2013-08-01 01:44:00,74.1,73.5,30.01,SSE,156,0.0,0.0,98,0.00,,,0.00,VWS V14.01,2013-08-01 05:44:00,
2013-08-01 01:50:00,74.4,73.8,30.00,SSE,157,0.0,1.0,98,0.00,,,0.00,VWS V14.01,2013-08-01 05:50:00,
2013-08-01 01:56:00,74.5,73.6,30.00,SSW,212,0.0,1.0,97,0.00,,,0.00,VWS V14.01,2013-08-01 05:56:00,
2013-08-01 02:02:00,74.4,73.5,30.00,SSW,212,0.0,3.0,97,0.00,,,0.00,VWS V14.01,2013-08-01 06:02:00,
2013-08-01 02:08:00,74.4,73.5,30.00,SSW,213,0.0,1.0,97,0.00,,,0.00,VWS V14.01,2013-08-01 06:08:00,
2013-08-01 02:13:00,74.5,73.3,30.00,SSW,213,0.0,3.0,96,0.00,,,0.00,VWS V14.01,2013-08-01 06:13:00,
2013-08-01 02:18:00,74.5,73.3,29.99,SSW,212,0.0,1.0,96,0.00,,,0.00,VWS V14.01,2013-08-01 06:18:00,
2013-08-01 02:23:00,74.5,73.3,29.99,SSW,212,0.0,1.0,96,0.00,,,0.00,VWS V14.01,2013-08-01 06:23:00,
2013-08-01 02:28:00,74.5,73.3,29.99,SSW,213,0.0,3.0,96,0.00,,,0.00,VWS V14.01,2013-08-01 06:28:00,
2013-08-01 02:33:00,74.6,73.4,29.99,SSW,213,0.0,0.0,96,0.00,,,0.00,VWS V14.01,2013-08-01 06:33:00,
2013-08-01 02:38:00,74.6,73.4,29.98,SSW,212,0.0,0.0,96,0.00,,,0.00,VWS V14.01,2013-08-01 06:38:00,
2013-08-01 02:43:00,74.6,73.4,29.98,SSW,213,0.0,0.0,96,0.00,,,0.00,VWS V14.01,2013-08-01 06:43:00,
2013-08-01 02:50:00,74.6,73.4,29.98,SSW,213,0.0,2.0,96,0.00,,,0.00,VWS V14.01,2013-08-01 06:50:00,
2013-08-01 02:56:00,74.5,73.0,29.98,SSW,213,0.0,1.0,95,0.00,,,0.00,VWS V14.01,2013-08-01 06:56:00,
2013-08-01 03:02:00,74.5,73.0,29.98,SSW,212,0.0,1.0,95,0.00,,,0.00,VWS V14.01,2013-08-01 07:02:00,
2013-08-01 03:08:00,74.4,72.9,29.98,SSW,212,0.0,1.0,95,0.00,,,0.00,VWS V14.01,2013-08-01 07:08:00,
2013-08-01 03:13:00,74.4,72.9,29.97,SSW,212,0.0,3.0,95,0.00,,,0.00,VWS V14.01,2013-08-01 07:13:00,
2013-08-01 03:20:00,74.5,73.0,29.97,SSW,212,0.0,0.0,95,0.00,,,0.00,VWS V14.01,2013-08-01 07:20:00,
2013-08-01 03:26:00,74.4,72.9,29.97,SSW,212,0.0,1.0,95,0.00,,,0.00,VWS V14.01,2013-08-01 07:26:00,
2013-08-01 03:32:00,74.3,72.8,29.97,SSW,213,0.0,2.0,95,0.00,,,0.00,VWS V14.01,2013-08-01 07:32:00,
2013-08-01 03:38:00,74.4,72.9,29.97,SSW,213,0.0,3.0,95,0.00,,,0.00,VWS V14.01,2013-08-01 07:38:00,
2013-08-01 03:43:00,74.5,73.0,29.97,SSW,213,3.0,3.0,95,0.00,,,0.00,VWS V14.01,2013-08-01 07:43:00,
2013-08-01 03:48:00,74.5,73.0,29.97,SSW,213,0.0,3.0,95,0.00,,,0.00,VWS V14.01,2013-08-01 07:48:00,
2013-08-01 03:53:00,74.6,73.1,29.97,SSW,213,0.0,0.0,95,0.00,,,0.00,VWS V14.01,2013-08-01 07:53:00,
2013-08-01 03:58:00,74.6,73.1,29.97,SSW,212,0.0,1.0,95,0.00,,,0.00,VWS V14.01,2013-08-01 07:58:00,
2013-08-01 04:03:00,74.7,72.9,29.97,SSW,212,0.0,1.0,94,0.00,,,0.00,VWS V14.01,2013-08-01 08:03:00,
2013-08-01 04:08:00,74.7,72.9,29.97,SSW,213,2.0,2.0,94,0.00,,,0.00,VWS V14.01,2013-08-01 08:08:00,
2013-08-01 04:15:00,74.6,72.8,29.97,SSW,213,0.0,2.0,94,0.00,,,0.00,VWS V14.01,2013-08-01 08:15:00,
2013-08-01 04:21:00,74.7,72.9,29.97,SSW,213,0.0,1.0,94,0.00,,,0.00,VWS V14.01,2013-08-01 08:21:00,
2013-08-01 04:27:00,74.8,73.0,29.97,SSW,212,0.0,1.0,94,0.00,,,0.00,VWS V14.01,2013-08-01 08:27:00,
2013-08-01 04:33:00,74.8,73.0,29.97,SSW,213,0.0,0.0,94,0.00,,,0.00,VWS V14.01,2013-08-01 08:33:00,
2013-08-01 04:39:00,74.8,73.0,29.97,SSW,212,0.0,2.0,94,0.00,,,0.00,VWS V14.01,2013-08-01 08:39:00,
2013-08-01 04:45:00,74.9,73.1,29.97,SSW,212,0.0,2.0,94,0.00,,,0.00,VWS V14.01,2013-08-01 08:45:00,
2013-08-01 04:51:00,74.9,72.7,29.97,SSW,212,1.0,3.0,93,0.00,,,0.00,VWS V14.01,2013-08-01 08:51:00,
2013-08-01 04:57:00,74.9,72.7,29.97,SSW,213,0.0,1.0,93,0.00,,,0.00,VWS V14.01,2013-08-01 08:57:00,
2013-08-01 05:06:00,74.9,72.7,29.97,SSW,212,0.0,1.0,93,0.00,,,0.00,VWS V14.01,2013-08-01 09:06:00,
2013-08-01 05:12:00,74.9,72.7,29.97,SSW,212,0.0,4.0,93,0.00,,,0.00,VWS V14.01,2013-08-01 09:12:00,
2013-08-01 05:18:00,74.9,72.7,29.97,SSW,212,0.0,1.0,93,0.00,,,0.00,VWS V14.01,2013-08-01 09:18:00,
2013-08-01 05:25:00,74.9,72.7,29.97,SSW,212,0.0,1.0,93,0.00,,,0.00,VWS V14.01,2013-08-01 09:25:00,
2013-08-01 05:31:00,75.0,72.8,29.97,SSW,212,0.0,1.0,93,0.00,,,0.00,VWS V14.01,2013-08-01 09:31:00,
2013-08-01 05:37:00,75.0,72.8,29.97,SSW,212,0.0,0.0,93,0.00,,,0.00,VWS V14.01,2013-08-01 09:37:00,
2013-08-01 05:43:00,75.0,72.8,29.98,SSW,212,0.0,1.0,93,0.00,,,0.00,VWS V14.01,2013-08-01 09:43:00,
2013-08-01 05:48:00,75.0,72.8,29.98,SSW,212,0.0,1.0,93,0.00,,,0.00,VWS V14.01,2013-08-01 09:48:00,
2013-08-01 05:55:00,75.1,72.9,29.98,SSW,212,0.0,1.0,93,0.00,,,0.00,VWS V14.01,2013-08-01 09:55:00,
2013-08-01 06:01:00,75.2,73.0,29.98,SSW,212,0.0,1.0,93,0.00,,,0.00,VWS V14.01,2013-08-01 10:01:00,
2013-08-01 06:08:00,75.3,72.8,29.98,SSW,212,0.0,1.0,92,0.00,,,0.00,VWS V14.01,2013-08-01 10:08:00,
2013-08-01 06:13:00,75.3,72.8,29.98,SSW,212,0.0,0.0,92,0.00,,,0.00,VWS V14.01,2013-08-01 10:13:00,
2013-08-01 06:19:00,75.3,72.8,29.98,SSW,212,0.0,1.0,92,0.00,,,0.00,VWS V14.01,2013-08-01 10:19:00,
2013-08-01 06:28:00,75.5,73.0,29.98,SSW,212,0.0,1.0,92,0.00,,,0.00,VWS V14.01,2013-08-01 10:28:00,
2013-08-01 06:33:00,75.6,73.1,29.98,SSW,212,0.0,1.0,92,0.00,,,0.00,VWS V14.01,2013-08-01 10:33:00,
2013-08-01 06:38:00,75.7,73.2,29.99,SSW,212,0.0,2.0,92,0.00,,,0.00,VWS V14.01,2013-08-01 10:38:00,
2013-08-01 06:43:00,75.8,73.3,29.99,SSW,212,0.0,1.0,92,0.00,,,0.00,VWS V14.01,2013-08-01 10:43:00,
2013-08-01 06:50:00,75.9,73.4,29.99,SSW,212,0.0,1.0,92,0.00,,,0.00,VWS V14.01,2013-08-01 10:50:00,
2013-08-01 06:58:00,75.9,73.1,29.99,SSW,212,0.0,1.0,91,0.00,,,0.00,VWS V14.01,2013-08-01 10:58:00,
2013-08-01 07:03:00,75.9,73.1,29.99,SSW,212,0.0,1.0,91,0.00,,,0.00,VWS V14.01,2013-08-01 11:03:00,
2013-08-01 07:08:00,75.9,73.1,29.99,SSW,212,0.0,1.0,91,0.00,,,0.00,VWS V14.01,2013-08-01 11:08:00,
2013-08-01 07:13:00,75.9,73.1,29.99,SSW,212,0.0,1.0,91,0.00,,,0.00,VWS V14.01,2013-08-01 11:13:00,
2013-08-01 07:21:00,75.9,73.1,29.99,SSW,212,0.0,0.0,91,0.00,,,0.00,VWS V14.01,2013-08-01 11:21:00,
2013-08-01 07:33:00,75.8,73.0,29.99,SSW,212,0.0,0.0,91,0.00,,,0.00,VWS V14.01,2013-08-01 11:33:00,
2013-08-01 07:39:00,75.8,73.0,29.99,SSW,212,0.0,0.0,91,0.00,,,0.00,VWS V14.01,2013-08-01 11:39:00,
2013-08-01 07:45:00,75.9,73.4,29.99,SSW,212,0.0,0.0,92,0.00,,,0.00,VWS V14.01,2013-08-01 11:45:00,
2013-08-01 07:52:00,75.9,73.4,29.99,SSW,212,0.0,0.0,92,0.00,,,0.00,VWS V14.01,2013-08-01 11:52:00,
2013-08-01 07:58:00,76.0,73.2,30.00,SSW,212,0.0,1.0,91,0.00,,,0.00,VWS V14.01,2013-08-01 11:58:00,
2013-08-01 08:10:00,76.5,74.0,30.00,SSW,212,0.0,0.0,92,0.00,,,0.00,VWS V14.01,2013-08-01 12:10:00,
2013-08-01 08:19:00,76.7,73.9,30.00,SSW,212,0.0,0.0,91,0.00,,,0.00,VWS V14.01,2013-08-01 12:19:00,
2013-08-01 08:28:00,76.9,73.8,30.00,SSW,212,0.0,1.0,90,0.00,,,0.00,VWS V14.01,2013-08-01 12:28:00,
2013-08-01 08:35:00,77.1,73.9,30.01,SSW,212,0.0,1.0,90,0.00,,,0.00,VWS V14.01,2013-08-01 12:35:00,
2013-08-01 08:41:00,77.3,73.8,30.01,SSW,212,0.0,1.0,89,0.00,,,0.00,VWS V14.01,2013-08-01 12:41:00,
2013-08-01 08:47:00,77.6,74.1,30.00,SSW,212,0.0,4.0,89,0.00,,,0.00,VWS V14.01,2013-08-01 12:47:00,
2013-08-01 08:53:00,77.9,74.1,30.01,SSW,212,1.0,1.0,88,0.00,,,0.00,VWS V14.01,2013-08-01 12:53:00,
2013-08-01 08:59:00,78.0,73.8,30.01,SSW,212,3.0,4.0,87,0.00,,,0.00,VWS V14.01,2013-08-01 12:59:00,
2013-08-01 09:05:00,78.2,74.0,30.01,SSW,212,0.0,2.0,87,0.00,,,0.00,VWS V14.01,2013-08-01 13:05:00,
2013-08-01 09:18:00,78.5,74.3,30.00,SSW,212,0.0,3.0,87,0.00,,,0.00,VWS V14.01,2013-08-01 13:18:00,
2013-08-01 09:23:00,78.6,74.4,30.00,SSW,212,3.0,4.0,87,0.00,,,0.00,VWS V14.01,2013-08-01 13:23:00,
2013-08-01 09:33:00,78.7,74.5,30.01,SSW,212,2.0,3.0,87,0.00,,,0.00,VWS V14.01,2013-08-01 13:33:00,
2013-08-01 09:43:00,78.9,74.7,30.01,SSW,212,1.0,1.0,87,0.00,,,0.00,VWS V14.01,2013-08-01 13:43:00,
2013-08-01 09:48:00,79.0,74.8,30.01,SSW,212,2.0,3.0,87,0.00,,,0.00,VWS V14.01,2013-08-01 13:48:00,
2013-08-01 09:53:00,79.1,74.9,30.01,SSW,212,0.0,3.0,87,0.00,,,0.00,VWS V14.01,2013-08-01 13:53:00,
2013-08-01 09:58:00,79.2,75.0,30.01,SSW,212,0.0,1.0,87,0.00,,,0.00,VWS V14.01,2013-08-01 13:58:00,
2013-08-01 10:07:00,79.4,75.2,30.01,SSW,212,0.0,4.0,87,0.00,,,0.00,VWS V14.01,2013-08-01 14:07:00,
2013-08-01 10:13:00,79.7,75.2,30.01,SSW,212,2.0,5.0,86,0.00,,,0.00,VWS V14.01,2013-08-01 14:13:00,
2013-08-01 10:20:00,80.1,75.5,30.01,SSW,212,0.0,3.0,86,0.00,,,0.00,VWS V14.01,2013-08-01 14:20:00,
2013-08-01 10:28:00,80.7,75.4,30.01,SSW,212,0.0,4.0,84,0.00,,,0.00,VWS V14.01,2013-08-01 14:28:00,
2013-08-01 10:35:00,81.2,75.9,30.01,SSW,212,0.0,1.0,84,0.00,,,0.00,VWS V14.01,2013-08-01 14:35:00,
2013-08-01 10:41:00,81.6,75.9,30.01,SSW,212,0.0,2.0,83,0.00,,,0.00,VWS V14.01,2013-08-01 14:41:00,
2013-08-01 10:48:00,81.6,75.9,30.01,SW,216,0.0,3.0,83,0.00,,,0.00,VWS V14.01,2013-08-01 14:48:00,
2013-08-01 10:53:00,81.9,76.6,30.01,SW,216,0.0,4.0,84,0.00,,,0.00,VWS V14.01,2013-08-01 14:53:00,
2013-08-01 10:58:00,82.4,76.7,30.01,SW,216,0.0,3.0,83,0.00,,,0.00,VWS V14.01,2013-08-01 14:58:00,
2013-08-01 11:03:00,82.9,76.8,30.01,SW,216,1.0,1.0,82,0.00,,,0.00,VWS V14.01,2013-08-01 15:03:00,
2013-08-01 11:09:00,83.5,77.1,30.01,WSW,241,1.0,2.0,81,0.00,,,0.00,VWS V14.01,2013-08-01 15:09:00,
2013-08-01 11:15:00,83.9,77.1,30.01,WSW,242,1.0,3.0,80,0.00,,,0.00,VWS V14.01,2013-08-01 15:15:00,
2013-08-01 11:23:00,84.4,77.6,30.01,SW,235,1.0,3.0,80,0.00,,,0.00,VWS V14.01,2013-08-01 15:23:00,
2013-08-01 11:28:00,84.8,77.2,30.00,SW,234,0.0,3.0,78,0.00,,,0.00,VWS V14.01,2013-08-01 15:28:00,
2013-08-01 11:33:00,85.6,77.2,30.00,SW,230,1.0,1.0,76,0.00,,,0.00,VWS V14.01,2013-08-01 15:33:00,
2013-08-01 11:39:00,86.0,77.2,30.00,WSW,243,0.0,3.0,75,0.00,,,0.00,VWS V14.01,2013-08-01 15:39:00,
2013-08-01 11:46:00,85.6,76.8,29.99,WNW,293,0.0,5.0,75,0.00,,,0.00,VWS V14.01,2013-08-01 15:46:00,
2013-08-01 11:55:00,85.0,77.0,29.99,West,266,0.0,2.0,77,0.00,,,0.00,VWS V14.01,2013-08-01 15:55:00,
2013-08-01 12:03:00,84.3,77.1,29.99,West,266,0.0,2.0,79,0.00,,,0.00,VWS V14.01,2013-08-01 16:03:00,
2013-08-01 12:10:00,83.8,76.6,29.99,West,272,0.0,1.0,79,0.00,,,0.00,VWS V14.01,2013-08-01 16:10:00,
2013-08-01 12:16:00,84.3,77.8,29.99,West,272,0.0,1.0,81,0.00,,,0.00,VWS V14.01,2013-08-01 16:16:00,
2013-08-01 12:22:00,84.9,76.9,29.99,NNW,338,0.0,5.0,77,0.00,,,0.00,VWS V14.01,2013-08-01 16:22:00,
2013-08-01 12:28:00,85.7,76.5,29.98,SW,228,0.0,4.0,74,0.00,,,0.00,VWS V14.01,2013-08-01 16:28:00,
2013-08-01 12:35:00,86.0,76.8,29.98,WSW,256,0.0,1.0,74,0.00,,,0.00,VWS V14.01,2013-08-01 16:35:00,
2013-08-01 12:41:00,85.6,76.8,29.98,WSW,258,0.0,1.0,75,0.00,,,0.00,VWS V14.01,2013-08-01 16:41:00,
2013-08-01 12:47:00,85.9,77.1,29.97,WSW,258,0.0,1.0,75,0.00,,,0.00,VWS V14.01,2013-08-01 16:47:00,
2013-08-01 12:53:00,86.6,76.9,29.97,WSW,243,0.0,4.0,73,0.00,,,0.00,VWS V14.01,2013-08-01 16:53:00,
2013-08-01 12:58:00,86.9,76.4,29.97,WSW,245,0.0,2.0,71,0.00,,,0.00,VWS V14.01,2013-08-01 16:58:00,
2013-08-01 13:03:00,87.1,76.6,29.97,WSW,242,0.0,3.0,71,0.00,,,0.00,VWS V14.01,2013-08-01 17:03:00,
2013-08-01 13:09:00,87.6,76.6,29.97,WSW,241,0.0,1.0,70,0.00,,,0.00,VWS V14.01,2013-08-01 17:09:00,
2013-08-01 13:21:00,88.6,77.1,29.96,SW,236,0.0,2.0,69,0.00,,,0.00,VWS V14.01,2013-08-01 17:21:00,
2013-08-01 13:28:00,89.0,77.1,29.96,SW,214,0.0,3.0,68,0.00,,,0.00,VWS V14.01,2013-08-01 17:28:00,
2013-08-01 13:34:00,88.8,77.3,29.96,SW,216,0.0,1.0,69,0.00,,,0.00,VWS V14.01,2013-08-01 17:34:00,
2013-08-01 13:43:00,89.3,77.4,29.96,SW,226,0.0,1.0,68,0.00,,,0.00,VWS V14.01,2013-08-01 17:43:00,
2013-08-01 13:52:00,89.4,77.0,29.96,SW,231,0.0,3.0,67,0.00,,,0.00,VWS V14.01,2013-08-01 17:52:00,
2013-08-01 13:58:00,89.5,77.1,29.96,SW,227,0.0,3.0,67,0.00,,,0.00,VWS V14.01,2013-08-01 17:58:00,
2013-08-01 14:03:00,89.8,76.9,29.95,SW,227,0.0,1.0,66,0.00,,,0.00,VWS V14.01,2013-08-01 18:03:00,
2013-08-01 14:08:00,90.2,76.8,29.95,SW,214,3.0,3.0,65,0.00,,,0.00,VWS V14.01,2013-08-01 18:08:00,
2013-08-01 14:13:00,90.4,77.5,29.95,SW,214,1.0,3.0,66,0.00,,,0.00,VWS V14.01,2013-08-01 18:13:00,
2013-08-01 14:18:00,90.8,77.4,29.94,SSW,204,0.0,3.0,65,0.00,,,0.00,VWS V14.01,2013-08-01 18:18:00,
2013-08-01 14:23:00,90.9,77.0,29.94,SSW,210,0.0,4.0,64,0.00,,,0.00,VWS V14.01,2013-08-01 18:23:00,
2013-08-01 14:28:00,91.1,76.8,29.94,SSW,210,2.0,3.0,63,0.00,,,0.00,VWS V14.01,2013-08-01 18:28:00,
2013-08-01 14:35:00,90.6,76.8,29.94,SSW,211,0.0,1.0,64,0.00,,,0.00,VWS V14.01,2013-08-01 18:35:00,
2013-08-01 14:41:00,91.2,76.8,29.94,SSW,211,0.0,3.0,63,0.00,,,0.00,VWS V14.01,2013-08-01 18:41:00,
2013-08-01 14:47:00,91.7,76.8,29.94,SW,222,0.0,1.0,62,0.00,,,0.00,VWS V14.01,2013-08-01 18:47:00,
2013-08-01 14:53:00,91.7,77.3,29.94,SW,216,0.0,0.0,63,0.00,,,0.00,VWS V14.01,2013-08-01 18:53:00,
2013-08-01 14:58:00,91.7,77.3,29.93,SW,216,0.0,1.0,63,0.00,,,0.00,VWS V14.01,2013-08-01 18:58:00,
2013-08-01 15:03:00,91.2,76.8,29.93,SW,218,0.0,2.0,63,0.00,,,0.00,VWS V14.01,2013-08-01 19:03:00,
2013-08-01 15:08:00,90.6,76.8,29.93,SW,218,0.0,1.0,64,0.00,,,0.00,VWS V14.01,2013-08-01 19:08:00,
2013-08-01 15:18:00,90.0,76.7,29.92,SW,218,0.0,3.0,65,0.00,,,0.00,VWS V14.01,2013-08-01 19:18:00,
2013-08-01 15:23:00,89.9,77.0,29.92,SW,217,0.0,1.0,66,0.00,,,0.00,VWS V14.01,2013-08-01 19:23:00,
2013-08-01 15:28:00,89.8,76.9,29.92,SW,218,0.0,1.0,66,0.00,,,0.00,VWS V14.01,2013-08-01 19:28:00,
2013-08-01 15:33:00,89.3,76.5,29.92,SW,218,0.0,1.0,66,0.00,,,0.00,VWS V14.01,2013-08-01 19:33:00,
2013-08-01 15:42:00,89.2,76.8,29.92,SW,218,0.0,0.0,67,0.00,,,0.00,VWS V14.01,2013-08-01 19:42:00,
2013-08-01 15:52:00,87.0,76.5,29.92,NE,51,1.0,5.0,71,0.00,,,0.00,VWS V14.01,2013-08-01 19:52:00,
2013-08-01 15:58:00,85.6,75.1,29.94,WSW,256,6.0,12.0,71,0.00,,,0.00,VWS V14.01,2013-08-01 19:58:00,
2013-08-01 16:04:00,81.4,74.3,29.95,SSW,199,13.0,16.0,79,0.08,,,0.08,VWS V14.01,2013-08-01 20:04:00,
2013-08-01 16:10:00,77.8,73.3,29.97,SW,216,10.0,11.0,86,0.20,,,0.20,VWS V14.01,2013-08-01 20:10:00,
2013-08-01 16:18:00,75.8,72.7,29.98,ESE,116,1.0,19.0,90,0.61,,,0.61,VWS V14.01,2013-08-01 20:18:00,
2013-08-01 16:23:00,75.2,72.4,29.99,ESE,120,1.0,5.0,91,0.87,,,0.87,VWS V14.01,2013-08-01 20:23:00,
2013-08-01 16:28:00,74.8,72.6,30.00,SE,142,0.0,1.0,93,1.01,,,1.01,VWS V14.01,2013-08-01 20:28:00,
2013-08-01 16:38:00,74.2,72.4,30.00,East,81,1.0,6.0,94,1.03,,,1.03,VWS V14.01,2013-08-01 20:38:00,
2013-08-01 16:41:00,74.0,72.2,30.00,ESE,112,8.0,14.0,94,1.03,,,1.03,VWS V14.01,2013-08-01 20:41:00,
2013-08-01 16:47:00,73.7,72.2,30.00,East,99,0.0,14.0,95,1.03,,,1.03,VWS V14.01,2013-08-01 20:47:00,
2013-08-01 16:53:00,73.5,72.0,30.01,East,89,3.0,11.0,95,1.14,,,1.14,VWS V14.01,2013-08-01 20:53:00,
2013-08-01 16:59:00,73.2,71.7,30.00,East,101,1.0,5.0,95,1.20,,,1.20,VWS V14.01,2013-08-01 20:59:00,
2013-08-01 17:05:00,72.8,71.3,29.99,ENE,75,3.0,7.0,95,1.28,,,1.34,VWS V14.01,2013-08-01 21:05:00,
2013-08-01 17:13:00,72.4,71.2,29.98,ESE,113,0.0,6.0,96,1.18,,,1.34,VWS V14.01,2013-08-01 21:13:00,
2013-08-01 17:18:00,72.2,71.0,29.98,East,92,0.0,5.0,96,1.05,,,1.34,VWS V14.01,2013-08-01 21:18:00,
2013-08-01 17:23:00,72.4,71.2,29.98,East,93,0.0,0.0,96,0.47,,,1.34,VWS V14.01,2013-08-01 21:23:00,
2013-08-01 17:29:00,72.6,71.4,29.98,East,92,0.0,0.0,96,0.34,,,1.34,VWS V14.01,2013-08-01 21:29:00,
2013-08-01 17:42:00,72.8,71.9,29.97,East,93,0.0,1.0,97,0.31,,,1.34,VWS V14.01,2013-08-01 21:42:00,
2013-08-01 17:48:00,73.0,72.1,29.97,East,92,0.0,0.0,97,0.31,,,1.34,VWS V14.01,2013-08-01 21:48:00,
2013-08-01 17:53:00,73.3,72.4,29.97,East,93,0.0,0.0,97,0.31,,,1.34,VWS V14.01,2013-08-01 21:53:00,
2013-08-01 18:00:00,73.6,72.7,29.97,East,93,0.0,0.0,97,0.16,,,1.34,VWS V14.01,2013-08-01 22:00:00,
2013-08-01 18:06:00,73.8,72.9,29.97,East,93,0.0,0.0,97,0.01,,,1.34,VWS V14.01,2013-08-01 22:06:00,
2013-08-01 18:12:00,73.9,73.0,29.97,East,93,0.0,0.0,97,0.01,,,1.35,VWS V14.01,2013-08-01 22:12:00,
2013-08-01 18:18:00,74.1,73.2,29.97,East,92,0.0,0.0,97,0.01,,,1.35,VWS V14.01,2013-08-01 22:18:00,
2013-08-01 18:23:00,74.4,73.8,29.96,East,92,0.0,0.0,98,0.01,,,1.35,VWS V14.01,2013-08-01 22:23:00,
2013-08-01 18:28:00,74.4,73.5,29.97,East,92,0.0,0.0,97,0.01,,,1.35,VWS V14.01,2013-08-01 22:28:00,
2013-08-01 18:33:00,74.5,73.6,29.96,East,92,0.0,0.0,97,0.01,,,1.35,VWS V14.01,2013-08-01 22:33:00,
2013-08-01 18:38:00,74.6,73.7,29.97,East,92,0.0,1.0,97,0.01,,,1.35,VWS V14.01,2013-08-01 22:38:00,
2013-08-01 18:43:00,74.6,73.7,29.97,East,93,0.0,1.0,97,0.01,,,1.35,VWS V14.01,2013-08-01 22:43:00,
2013-08-01 18:48:00,74.6,73.7,29.97,East,92,0.0,1.0,97,0.01,,,1.35,VWS V14.01,2013-08-01 22:48:00,
2013-08-01 18:53:00,74.7,73.8,29.96,East,92,0.0,1.0,97,0.01,,,1.35,VWS V14.01,2013-08-01 22:53:00,
2013-08-01 18:58:00,74.9,74.0,29.97,East,92,0.0,0.0,97,0.01,,,1.35,VWS V14.01,2013-08-01 22:58:00,
2013-08-01 19:03:00,75.1,74.5,29.96,East,93,0.0,0.0,98,0.01,,,1.35,VWS V14.01,2013-08-01 23:03:00,
2013-08-01 19:08:00,75.3,74.7,29.96,East,93,0.0,0.0,98,0.01,,,1.35,VWS V14.01,2013-08-01 23:08:00,
2013-08-01 19:13:00,75.5,74.9,29.96,East,93,0.0,0.0,98,0.00,,,1.35,VWS V14.01,2013-08-01 23:13:00,
2013-08-01 19:18:00,75.6,74.7,29.96,East,92,0.0,0.0,97,0.00,,,1.35,VWS V14.01,2013-08-01 23:18:00,
2013-08-01 19:23:00,75.7,74.8,29.97,East,93,0.0,0.0,97,0.00,,,1.35,VWS V14.01,2013-08-01 23:23:00,
2013-08-01 19:28:00,75.6,74.7,29.97,East,92,0.0,1.0,97,0.00,,,1.35,VWS V14.01,2013-08-01 23:28:00,
2013-08-01 19:33:00,75.5,74.6,29.97,East,92,0.0,0.0,97,0.00,,,1.35,VWS V14.01,2013-08-01 23:33:00,
2013-08-01 19:38:00,75.5,74.6,29.97,East,93,0.0,0.0,97,0.00,,,1.35,VWS V14.01,2013-08-01 23:38:00,
2013-08-01 19:43:00,75.7,74.8,29.97,East,92,0.0,0.0,97,0.00,,,1.35,VWS V14.01,2013-08-01 23:43:00,
2013-08-01 19:48:00,75.8,75.2,29.97,East,92,0.0,0.0,98,0.00,,,1.35,VWS V14.01,2013-08-01 23:48:00,
2013-08-01 19:53:00,75.8,75.2,29.97,East,93,0.0,0.0,98,0.00,,,1.35,VWS V14.01,2013-08-01 23:53:00,
2013-08-01 19:58:00,76.0,75.4,29.97,East,93,0.0,0.0,98,0.00,,,1.35,VWS V14.01,2013-08-01 23:58:00,
2013-08-01 20:03:00,75.9,75.3,29.97,East,93,0.0,0.0,98,0.00,,,1.35,VWS V14.01,2013-08-02 00:03:00,
2013-08-01 20:08:00,75.9,75.3,29.97,East,92,0.0,0.0,98,0.00,,,1.35,VWS V14.01,2013-08-02 00:08:00,
2013-08-01 20:13:00,75.9,75.0,29.96,East,93,0.0,0.0,97,0.00,,,1.35,VWS V14.01,2013-08-02 00:13:00,
2013-08-01 20:18:00,75.8,74.9,29.96,East,92,0.0,0.0,97,0.00,,,1.35,VWS V14.01,2013-08-02 00:18:00,
2013-08-01 20:23:00,75.7,74.8,29.96,East,93,0.0,0.0,97,0.00,,,1.35,VWS V14.01,2013-08-02 00:23:00,
2013-08-01 20:33:00,75.4,74.5,29.95,East,93,0.0,0.0,97,0.00,,,1.35,VWS V14.01,2013-08-02 00:33:00,
2013-08-01 20:38:00,75.3,74.4,29.96,East,93,0.0,0.0,97,0.00,,,1.35,VWS V14.01,2013-08-02 00:38:00,
2013-08-01 20:43:00,75.2,74.3,29.96,East,93,0.0,0.0,97,0.00,,,1.35,VWS V14.01,2013-08-02 00:43:00,
2013-08-01 20:48:00,75.3,74.7,29.96,East,92,0.0,0.0,98,0.00,,,1.35,VWS V14.01,2013-08-02 00:48:00,
2013-08-01 20:53:00,75.3,74.7,29.96,East,93,0.0,0.0,98,0.00,,,1.35,VWS V14.01,2013-08-02 00:53:00,
2013-08-01 20:58:00,75.3,74.7,29.95,East,93,0.0,0.0,98,0.00,,,1.35,VWS V14.01,2013-08-02 00:58:00,
2013-08-01 21:03:00,75.2,74.6,29.95,East,92,0.0,0.0,98,0.00,,,1.35,VWS V14.01,2013-08-02 01:03:00,
2013-08-01 21:08:00,75.2,74.6,29.95,East,93,0.0,0.0,98,0.00,,,1.35,VWS V14.01,2013-08-02 01:08:00,
2013-08-01 21:13:00,75.2,74.6,29.96,East,92,0.0,0.0,98,0.00,,,1.35,VWS V14.01,2013-08-02 01:13:00,
2013-08-01 21:18:00,75.2,74.6,29.96,East,93,0.0,0.0,98,0.00,,,1.35,VWS V14.01,2013-08-02 01:18:00,
2013-08-01 21:25:00,75.3,74.7,29.96,East,92,0.0,0.0,98,0.00,,,1.35,VWS V14.01,2013-08-02 01:25:00,
2013-08-01 21:33:00,75.2,74.6,29.96,East,93,0.0,0.0,98,0.00,,,1.35,VWS V14.01,2013-08-02 01:33:00,
2013-08-01 21:40:00,75.4,74.8,29.96,East,92,0.0,0.0,98,0.00,,,1.35,VWS V14.01,2013-08-02 01:40:00,
2013-08-01 21:48:00,75.7,75.1,29.96,East,92,0.0,0.0,98,0.00,,,1.35,VWS V14.01,2013-08-02 01:48:00,
2013-08-01 21:53:00,75.7,75.1,29.96,East,93,0.0,0.0,98,0.00,,,1.35,VWS V14.01,2013-08-02 01:53:00,
2013-08-01 21:58:00,75.7,75.1,29.96,East,92,0.0,0.0,98,0.00,,,1.35,VWS V14.01,2013-08-02 01:58:00,
2013-08-01 22:04:00,75.5,74.9,29.96,East,92,0.0,0.0,98,0.00,,,1.35,VWS V14.01,2013-08-02 02:04:00,
2013-08-01 22:13:00,75.4,74.8,29.96,East,92,0.0,0.0,98,0.00,,,1.35,VWS V14.01,2013-08-02 02:13:00,
2013-08-01 22:18:00,75.3,74.7,29.97,East,93,0.0,0.0,98,0.00,,,1.35,VWS V14.01,2013-08-02 02:18:00,
2013-08-01 22:23:00,75.3,74.7,29.97,East,92,0.0,0.0,98,0.00,,,1.35,VWS V14.01,2013-08-02 02:23:00,
2013-08-01 22:28:00,75.3,74.7,29.97,East,92,0.0,0.0,98,0.00,,,1.35,VWS V14.01,2013-08-02 02:28:00,
2013-08-01 22:35:00,75.3,74.7,29.97,East,93,0.0,0.0,98,0.00,,,1.35,VWS V14.01,2013-08-02 02:35:00,
2013-08-01 22:41:00,75.2,74.6,29.97,East,93,0.0,0.0,98,0.00,,,1.35,VWS V14.01,2013-08-02 02:41:00,
2013-08-01 22:47:00,75.2,74.6,29.97,East,92,0.0,0.0,98,0.00,,,1.35,VWS V14.01,2013-08-02 02:47:00,
2013-08-01 22:58:00,75.0,74.4,29.97,East,93,0.0,0.0,98,0.00,,,1.35,VWS V14.01,2013-08-02 02:58:00,
2013-08-01 23:05:00,74.9,74.3,29.97,East,92,0.0,0.0,98,0.00,,,1.35,VWS V14.01,2013-08-02 03:05:00,
2013-08-01 23:13:00,74.9,74.3,29.98,East,93,0.0,0.0,98,0.00,,,1.35,VWS V14.01,2013-08-02 03:13:00,
2013-08-01 23:21:00,74.8,74.2,29.98,East,92,0.0,0.0,98,0.00,,,1.35,VWS V14.01,2013-08-02 03:21:00,
2013-08-01 23:27:00,74.9,74.3,29.98,East,93,0.0,0.0,98,0.00,,,1.35,VWS V14.01,2013-08-02 03:27:00,
2013-08-01 23:33:00,74.8,74.2,29.99,East,93,0.0,1.0,98,0.00,,,1.35,VWS V14.01,2013-08-02 03:33:00,
2013-08-01 23:39:00,74.8,74.2,29.98,East,93,0.0,0.0,98,0.00,,,1.35,VWS V14.01,2013-08-02 03:39:00,
2013-08-01 23:45:00,74.9,74.3,29.98,East,93,0.0,0.0,98,0.00,,,1.35,VWS V14.01,2013-08-02 03:45:00,
2013-08-01 23:53:00,74.9,74.3,29.98,East,93,0.0,0.0,98,0.00,,,1.35,VWS V14.01,2013-08-02 03:53:00,